Tracking 33200 objects as of 17-Feb-2026
HD Live streaming from Space Station
objects crossing your sky now

SL-14 R/B

Track SL-14 R/B now!
10-day predictions


NORAD ID: 19337
Int'l Code: 1988-064B
Perigee: 1,190.4 km
Apogee: 1,214.2 km
Inclination: 82.5 °
Period: 109.3 minutes
Semi major axis: 7573 km
RCS: 5.3254 m2 (large)
Launch date: July 26, 1988
Source: Commonwealth of Independent States (former USSR) (CIS)
Launch site: PLESETSK MISSILE AND SPACE COMPLEX (PKMTR)

Note: This is a ROCKET BODY
Your satellite tracking list
Your tracking list is empty




NASA's NSSDC Master Catalog

Two Line Element Set (TLE):
1 19337U 88064B   26048.12694943  .00000008  00000-0 -12513-4 0  9992
2 19337  82.5431  58.8058 0015693 174.6164 254.0293 13.17272283805931
Source of the keplerian elements: AFSPC